Regional Weather Roundup
Issued by NWS

Home | Current Version | Previous Version | Graphics & Text | Print | Product List | Glossary On
Versions: 1 2 3 4 5 6 7 8 9 10 11 12 13 14 15 16 17 18 19 20 21 22 23 24 25 26 27 28 29 30 31 32 33 34 35 36 37 38 39 40 41 42 43 44 45 46 47 48 49 50
000
ASUS43 KBIS 220602
RWRND

NORTH DAKOTA REGIONAL WEATHER ROUNDUP
NATIONAL WEATHER SERVICE BISMARCK ND
100 AM CDT SUN OCT 22 2017

NOTE: "FAIR" INDICATES FEW OR NO CLOUDS BELOW 12,000 FEET WITH NO
SIGNIFICANT WEATHER AND/OR OBSTRUCTIONS TO VISIBILITY.


NDZ001>003-009>011-017-220700-
NORTHWEST NORTH DAKOTA

CITY           SKY/WX    TMP DP  RH WIND       PRES   REMARKS
WILLISTON      CLEAR     38  25  59 W10       29.80S
6HR MIN TEMP:  34; 6HR MAX TEMP:  49;

MINOT          CLEAR     44  31  60 SW15      29.73R
MINOT AFB      CLEAR     39  31  73 W12       29.71R
$$

NDZ018>021-031>035-040>046-220700-
SOUTHWEST NORTH DAKOTA

CITY           SKY/WX    TMP DP  RH WIND       PRES   REMARKS
BISMARCK       CLEAR     40  31  70 W8        29.83R
6HR MIN TEMP:  39; 6HR MAX TEMP:  52;

DICKINSON      CLEAR     36  24  62 W13       29.82F
GARRISON         N/A     38  32  79 W12       29.78R
6HR MIN TEMP:  37; 6HR MAX TEMP:  48;

HETTINGER ARPT CLEAR     28  20  71 CALM      29.90S
$$

NDZ004>008-012>016-024-026-027-054-220700-
NORTHEAST NORTH DAKOTA

CITY           SKY/WX    TMP DP  RH WIND       PRES   REMARKS
GRAND FORKS    CLOUDY    50  38  63 W20       29.66R
GRND FRKS AFB  MOCLDY    47  36  64 W15       29.67R
DEVILS LAKE    MOCLDY    45  38  76 W16       29.68S
$$

NDZ022-023-025-028>030-036>039-047>053-220700-
SOUTHEAST NORTH DAKOTA

CITY           SKY/WX    TMP DP  RH WIND       PRES   REMARKS
FARGO          CLOUDY    51  39  63 W15       29.76R
6HR MIN TEMP:  51; 6HR MAX TEMP:  54;

JAMESTOWN      CLEAR     45  36  70 W15       29.78R
$$




USA.gov is the U.S. government's official web portal to all federal, state and local government web resources and services.